Location: Izdebno
(52.6670°N, 16.2170°E)
Time: 02:27:48
(UTC+02:00)

SR - Pass Details

Date: 25 February 2024
Orbit: 577 x 862 km, 66.7° (Epoch: 22 April)

Event Time Altitude Azimuth Distance (km) Brightness Sun altitude
Rises 21:12:09 0° 315° (NW) 3,336 ? -33.8°
Reaches altitude 10° 21:15:04 10° 328° (NNW) 2,356 ? -34.1°
Enters shadow 21:17:59 22° 357° (N) 1,614 ? -34.5°
Maximum altitude 21:19:32 26° 24° (NNE) 1,462 - -34.7°
Drops below altitude 10° 21:23:43 10° 81° (E) 2,189 - -35.2°
Sets 21:26:22 0° 94° (E) 3,065 - -35.5°
